Regional Weather Roundup
Issued by NWS Sioux Falls, SD

Home | Current Version | Previous Version | Graphics & Text | Print | Product List | Glossary On
Versions: 1 2 3 4 5 6 7 8 9 10 11 12 13 14 15 16 17 18 19 20 21 22 23 24 25 26 27 28 29 30 31 32 33 34 35 36 37 38 39 40 41 42 43 44 45 46 47 48 49 50
000
ASUS43 KFSD 251710
RWRFSD

WEATHER ROUNDUP FOR SE SOUTH DAKOTA/SW MINNESOTA/NW IOWA
NATIONAL WEATHER SERVICE SIOUX FALLS SD
1200 PM CDT TUE JUL 25 2017

NOTE: "FAIR" INDICATES FEW OR NO CLOUDS BELOW 12,000 FEET WITH NO
SIGNIFICANT WEATHER AND OR OBSTRUCTIONS TO VISIBILITY.


SDZ038>040-050-052>070-251800-
SOUTHEAST SOUTH DAKOTA

CITY           SKY/WX    TMP DP  RH WIND       PRES   REMARKS
BROOKINGS      SUNNY     86  72  62 S14       29.89F
CHAMBERLAIN    SUNNY     93  66  40 S8        29.85S HX  95
HURON          SUNNY     88  67  49 VRB5      29.85S
MADISON        FAIR      84  73  70 SW15G21   29.90F
MITCHELL       SUNNY     94  67  41 SW10G18   29.85F HX  97
SIOUX FALLS    CLOUDY    86  75  69 S16G23    29.91F HX  95
WINNER         FAIR      94  65  38 VRB6      29.87F HX  96
YANKTON        SUNNY     96  67  38 S15G24    29.90S HX 100
$$

MNZ071-072-080-081-089-090-097-098-251800-
SOUTHWEST MINNESOTA

CITY           SKY/WX    TMP DP  RH WIND       PRES   REMARKS
FAIRMONT       SUNNY     81  70  69 S22G28    29.98F
JACKSON        CLOUDY    81  68  65 S16G24    29.98S
LUVERNE        CLOUDY    82  68  61 S15       29.94S
MARSHALL       PTSUNNY   85  72  65 SW13      29.89F
MONTEVIDEO     MOSUNNY   86  72  62 CALM      29.90R
PIPESTONE      CLOUDY    84  72  65 SW14G20   29.93S
REDWOOD FALLS  MOSUNNY   81  69  67 S14       29.92S
TRACY          CLOUDY    82  72  71 S20G25    29.91F
WINDOM         MOSUNNY   82  68  61 S15G21    29.95R
WORTHINGTON    MOSUNNY   82  71  69 S16G23    29.96R
$$

IAZ001>003-012>014-020>022-031-032-NEZ013-014-SDZ071-251800-
NORTHWEST IOWA

CITY           SKY/WX    TMP DP  RH WIND       PRES   REMARKS
CHEROKEE       SUNNY     85  72  64 S17       29.98S
DENISON        SUNNY     84  72  65 S12G23    30.03S
ESTHERVILLE    SUNNY     81  70  69 S17G28    29.99S
ORANGE CITY    SUNNY     84  73  70 S14       29.97R
SHELDON        SUNNY     84  72  65 S14G21    29.95S
SIOUX CITY     SUNNY     89  74  60 S12G20    29.95F HX  98
SPENCER        SUNNY     86  70  58 S16       29.99R
STORM LAKE     SUNNY     82  72  69 S15G22    30.01R
$$

ABBREVIATIONS USED IN REMARKS
   TC - TEMPERATURE IN CELSIUS
  WCI - WIND CHILL INDEX
   HX - HEAT INDEX
  VSB - VISIBILITY




USA.gov is the U.S. government's official web portal to all federal, state and local government web resources and services.